Location: Unspecified
(0.0000°N, 0.0000°E)
Time: 05:26:05
(UTC+00:00)

A-11 Canister half - Visible Passes

Search period start: 01 November 2014 00:00
Search period end: 11 November 2014 00:00
Orbit: 1525 x 1685 km, 47.3° (Epoch: 30 October)

Date Brightness Start Highest point End Pass type
(mag) Time Alt. Az. Time Alt. Az. Time Alt. Az.
01 Nov 11.2 02:48:00 10° S 02:54:04 17° SE 03:00:01 10° E visible
01 Nov 9.2 04:49:20 10° SW 04:59:30 85° SE 05:09:21 10° NE visible
02 Nov 11.3 02:26:53 10° S 02:32:26 16° SE 02:37:55 10° E visible
02 Nov 9.2 04:27:47 10° SW 04:37:57 81° SE 04:47:48 10° NE visible
03 Nov 11.3 02:05:50 10° SSE 02:10:48 15° SE 02:15:43 10° ESE visible
03 Nov 9.3 04:06:14 10° SW 04:16:23 76° SE 04:26:15 10° NE visible
04 Nov 11.3 01:44:53 10° SSE 01:49:10 13° SE 01:53:25 10° ESE visible
04 Nov 9.3 03:44:43 10° SSW 03:54:50 71° SE 04:04:41 10° NE visible
05 Nov 11.3 01:24:06 10° SSE 01:27:31 12° SE 01:30:55 10° ESE visible
05 Nov 9.3 03:23:12 10° SSW 03:33:16 67° SE 03:43:06 10° NE visible
06 Nov 11.3 01:03:41 10° SSE 01:05:52 11° SE 01:08:02 10° SE visible
06 Nov 9.4 03:01:41 10° SSW 03:11:43 63° SE 03:21:30 10° NE visible
06 Nov 9.8 05:08:27 10° WSW 05:16:43 29° NW 05:24:50 10° N visible
06 Nov 11.8 18:06:35 10° SW 18:08:27 11° SW 18:10:20 10° SSW visible
07 Nov 9.5 02:46:13 39° S 02:50:09 59° SE 02:59:53 10° NE visible
07 Nov 9.7 04:46:38 10° WSW 04:55:08 31° NW 05:03:30 10° N visible
08 Nov 9.6 02:29:23 54° ESE 02:29:23 54° ESE 02:38:16 10° NE visible
08 Nov 9.6 04:27:55 20° W 04:33:34 34° NW 04:42:10 10° NNE visible
09 Nov 10.2 02:11:29 33° ENE 02:11:29 33° ENE 02:16:37 10° ENE visible
09 Nov 9.5 04:09:58 33° WNW 04:11:59 36° NW 04:20:48 10° NNE visible
10 Nov 10.9 01:53:03 17° ENE 01:53:03 17° ENE 01:54:57 10° ENE visible
10 Nov 9.5 03:51:30 38° NW 03:51:30 38° NW 03:59:26 10° NNE visible
